User: anonymous   Login
Location: Ferchesar
(52.6477°N, 12.4298°E)
Time: 08:39:37
(UTC+01:00)
Language:

A-11 Canister half - Orbit

View from above orbital plane
View from above orbital plane
View from above satellite
View from above satellite

Ground track
Ground track

The orbit data is extracted from the following two-line orbital elements,

1 00051U 60009C   21340.67276741 -.00000134  00000-0 -48426-3 0  9998
2 00051  47.2114 125.3982 0104912 320.3973  38.9187 12.18272994729583
Epoch (UTC): 06 December 2021 16:08:47
Eccentricity: 0.0104912
inclination: 47.2114°
perigee height: 1516 km
apogee height: 1684 km
right ascension of ascending node: 125.3982°
argument of perigee: 320.3973°
revolutions per day: 12.18272994
mean anomaly at epoch: 38.9187°
orbit number at epoch: 72958

The dashed part of the orbit path shows where the satellite is in the earth's shadow,  

DLR